Theta_e
330 330 328 325 321 317 321 322 325 330 329 328 328 327 325 320 331 333 317 320 326 332 334 333 333 334 334 334 334 333 333 332 334 334 333 333 334 335 335 335 334 333 332 331 330 327 323 316 322
329 331 327 326 322 319 319 317 323 326 326 326 324 322 319 316 318 317 316 318 324 329 334 333 333 332 332 332 332 333 333 333 333 333 332 332 334 334 334 333 333 333 333 333 331 331 330 328 325
330 329 326 325 319 319 318 321 322 324 326 325 322 320 317 314 316 319 316 320 323 329 332 332 332 332 331 332 332 331 331 330 330 333 331 328 326 329 333 331 328 328 331 332 332 332 332 332 330
329 325 324 326 329 324 316 321 325 324 326 324 324 316 315 316 320 321 321 323 327 329 329 327 326 323 318 318 320 324 326 325 325 328 327 324 320 322 328 327 324 319 324 326 324 323 328 330 331
322 323 326 328 327 325 325 324 326 325 327 326 324 315 314 314 315 319 323 326 326 326 324 320 316 315 315 313 313 314 316 316 316 316 315 314 314 315 315 314 313 313 316 317 318 319 321 322 322
320 322 326 329 329 327 326 327 327 325 326 326 320 315 314 313 314 315 317 321 321 320 318 316 313 309 305 304 305 307 308 307 306 306 305 304 304 304 304 303 303 303 304 304 305 306 307 309 311
318 320 325 325 327 326 325 323 324 323 322 323 322 313 312 313 313 316 317 318 318 315 314 309 305 304 303 303 303 303 303 303 303 303 303 303 303 303 303 302 303 303 303 303 303 303 303 303 303
316 318 322 323 326 327 325 323 323 324 320 322 321 313 311 315 314 315 315 315 315 313 308 304 304 303 303 303 303 303 303 303 303 303 303 303 303 303 302 303 303 303 303 303 303 303 303 303 303
317 321 322 322 324 324 322 318 316 317 318 319 318 318 319 318 314 314 313 312 311 310 307 304 303 303 303 303 303 303 303 304 304 303 303 302 302 302 302 302 302 302 302 302 303 303 302 303 303
319 319 321 319 315 316 314 316 314 314 312 312 314 315 316 316 315 314 314 314 312 311 308 304 303 303 303 303 303 304 304 305 305 304 304 304 303 303 303 302 302 302 302 303 303 303 303 303 303
316 319 318 314 312 311 311 315 315 312 310 314 315 315 314 313 313 312 313 313 315 313 306 303 303 303 303 303 304 305 305 305 305 305 304 304 304 304 303 303 303 303 303 304 304 304 304 304 304
316 315 316 313 311 311 310 309 311 312 316 318 317 317 314 313 313 312 312 312 311 309 305 303 303 303 303 304 305 305 305 304 304 304 304 304 304 303 303 303 303 304 304 304 304 304 304 304 303
314 313 311 310 309 308 309 307 308 309 315 313 315 313 314 314 314 314 313 311 310 308 304 304 303 303 303 304 305 305 304 304 304 304 304 304 303 302 303 303 303 304 304 304 303 303 303 303 304
310 309 309 308 308 307 305 307 308 312 317 312 311 312 312 313 315 313 310 310 309 307 304 304 303 303 303 304 304 304 304 304 305 304 304 304 303 303 303 303 303 303 303 303 303 303 303 303 303
307 309 308 306 306 305 304 308 304 312 315 315 313 313 312 312 312 311 312 310 309 307 305 305 303 303 303 304 304 304 304 304 304 304 304 304 303 303 303 303 303 303 302 302 303 303 303 303 303
308 306 311 308 303 304 307 312 311 309 309 310 313 313 311 312 312 311 310 309 307 306 305 305 304 303 303 304 304 303 303 303 304 305 305 304 303 303 303 303 303 303 302 302 303 303 303 303 303
306 308 308 310 303 303 304 308 308 305 304 306 308 311 311 311 311 310 310 308 306 306 305 305 304 303 303 304 304 303 303 303 304 304 304 304 304 303 303 303 303 302 302 302 302 303 302 302 303
307 307 307 308 304 302 301 302 304 305 305 303 305 306 308 308 310 310 310 308 305 305 305 304 304 303 303 303 303 302 302 303 303 303 303 303 303 303 302 302 302 302 302 302 302 302 302 301 301
304 304 303 303 302 302 301 302 304 304 302 301 303 305 305 307 309 309 308 307 305 305 304 304 304 303 303 303 303 303 302 303 303 303 303 303 303 302 302 302 301 301 302 302 301 301 301 301 301
302 302 301 302 302 301 301 301 303 304 303 303 304 304 304 306 307 306 307 306 305 304 304 304 304 303 303 303 303 303 302 302 303 303 303 302 302 302 302 302 301 301 302 301 301 300 300 301 299
301 301 302 303 303 301 300 302 303 304 303 305 305 305 305 306 306 306 305 305 304 304 304 304 304 303 303 303 303 302 301 302 303 303 303 302 302 301 301 301 301 301 301 301 300 300 299 299 298
301 301 303 303 303 301 303 302 303 306 306 305 306 305 305 306 306 307 307 305 304 304 304 304 304 303 303 303 303 303 302 302 303 303 302 302 301 301 301 301 301 301 301 300 300 300 299 297 295
300 301 302 302 302 302 302 302 301 303 307 307 305 306 308 307 306 307 307 307 305 304 304 304 304 303 303 302 303 303 302 301 302 303 302 302 301 301 301 300 301 301 301 300 300 299 297 295 295
299 300 301 301 300 301 300 301 300 305 307 308 306 307 307 307 307 306 307 307 306 305 304 304 303 303 303 302 302 303 302 301 302 302 302 302 301 301 301 300 301 300 300 300 300 298 296 295 295
300 299 303 303 299 303 301 301 303 304 305 306 307 307 308 308 307 307 307 306 306 305 304 304 303 303 303 302 302 302 302 301 301 302 302 302 301 301 300 300 300 300 300 300 300 298 296 295 295
298 299 303 302 307 308 301 304 306 305 304 305 307 307 307 307 306 306 307 307 306 306 305 304 303 303 303 302 302 302 302 301 301 301 302 301 301 301 300 300 300 300 300 300 299 297 296 295 294
298 300 301 302 296 301 303 302 303 305 302 303 302 304 305 306 306 306 305 306 307 306 305 304 304 303 303 303 302 302 302 301 301 301 301 301 300 300 300 300 300 300 300 300 298 296 296 295 294
297 298 300 299 298 301 304 304 305 307 306 302 302 301 304 305 305 305 305 305 306 307 306 305 304 304 304 303 302 302 302 301 301 300 301 300 300 300 299 300 300 300 300 299 297 296 295 295 294
296 298 297 298 302 304 306 306 302 304 305 303 301 303 305 305 305 305 305 305 306 306 306 306 305 304 304 303 303 302 302 301 300 300 300 300 299 300 299 299 300 300 300 298 297 296 295 294 294
296 298 299 300 301 302 306 306 305 303 304 302 304 305 305 305 306 305 305 305 304 305 305 305 305 305 305 304 303 303 302 301 300 300 300 299 299 300 299 299 299 300 300 297 296 296 295 294 295
Wind_Speed
13 14 15 3 2 4 4 6 2 3 2 4 4 4 7 5 5 4 12 19 15 17 15 15 14 12 10 9 8 8 8 7 6 6 5 5 5 5 6 5 4 5 5 5 5 5 6 6 7
13 15 8 1 4 0 5 4 6 6 5 14 11 5 3 3 5 8 17 18 19 16 15 15 14 13 11 10 10 9 8 7 7 6 7 7 6 6 5 5 4 5 6 6 7 8 8 8 8
13 13 4 2 3 5 5 3 5 3 13 6 6 4 4 6 7 11 10 20 18 17 15 14 13 12 11 10 10 10 10 10 9 10 9 8 9 9 9 9 9 9 9 9 9 9 10 11 10
9 4 2 2 8 7 6 2 4 6 5 6 9 5 4 6 9 14 17 20 19 17 15 14 13 12 12 12 12 11 11 11 10 10 10 11 11 10 10 12 12 12 12 13 13 13 13 12 12
4 2 1 3 7 7 5 5 21 8 8 9 12 6 5 10 10 14 18 19 18 17 15 14 13 14 15 15 14 13 13 11 10 11 11 11 11 11 12 13 12 12 13 14 15 15 15 16 17
4 2 1 5 8 6 4 12 14 5 8 11 6 13 7 10 14 17 18 18 17 15 14 13 13 15 15 15 15 14 12 11 11 9 8 7 7 7 6 6 6 7 9 11 12 14 15 16 16
5 3 5 6 5 8 5 12 8 9 9 9 10 7 6 17 18 17 19 19 17 15 14 12 11 10 9 8 8 8 8 7 6 5 3 3 3 3 3 4 4 6 7 8 9 10 10 12 14
6 4 4 5 7 13 7 9 10 14 9 9 13 7 7 23 22 21 20 19 17 15 14 12 12 10 9 9 9 8 7 6 4 3 2 2 2 3 3 4 4 5 5 6 7 8 9 11 12
8 2 5 6 6 7 5 4 6 7 11 12 12 7 8 22 26 25 24 22 21 18 16 15 14 13 11 10 10 8 7 6 4 3 2 2 3 3 4 5 6 7 8 8 9 10 11 12 13
6 4 8 4 2 4 5 4 9 6 6 6 13 13 13 24 27 26 26 26 24 22 19 18 16 14 13 12 10 9 7 6 5 4 3 3 4 5 6 7 7 8 9 9 10 11 12 13 14
7 6 3 2 2 4 5 3 6 6 5 15 28 22 21 27 28 25 24 23 22 21 21 20 18 17 14 13 10 8 7 6 4 3 3 4 5 5 6 6 7 8 8 10 11 12 14 15 17
3 5 6 3 4 4 3 7 5 14 11 10 23 25 25 29 30 28 26 25 25 24 22 21 19 16 15 13 10 9 7 5 4 3 3 4 5 5 5 6 7 8 9 11 13 14 15 16 17
5 3 5 8 9 10 10 11 10 12 24 12 11 23 29 30 29 27 25 24 25 26 25 23 21 18 16 13 12 10 8 5 4 4 3 4 4 4 6 7 9 11 12 14 15 17 18 19 19
6 5 9 9 12 8 5 6 5 12 24 25 17 20 29 33 30 29 28 29 30 28 28 25 23 20 17 16 13 11 8 6 6 4 4 5 5 6 7 9 11 13 15 15 17 18 19 20 21
3 3 5 9 8 5 2 10 13 31 26 24 33 32 31 30 35 34 30 31 33 32 28 27 24 22 20 18 15 13 10 7 5 4 4 5 6 7 8 10 12 15 16 17 18 19 20 21 22
4 1 2 1 8 3 6 14 3 4 22 31 28 35 33 37 37 35 33 31 33 32 32 27 26 25 22 21 18 15 11 8 6 5 5 6 7 8 9 11 14 16 16 17 19 21 21 22 24
1 5 5 4 8 4 6 10 6 4 5 21 30 32 33 37 37 39 37 33 35 36 34 31 29 28 25 23 20 16 13 9 7 6 7 7 8 9 11 12 14 15 16 17 19 20 23 24 24
6 6 5 5 5 4 4 22 17 26 19 20 20 25 33 34 42 39 38 36 36 38 36 32 31 30 26 24 23 20 15 11 8 6 8 9 8 9 11 13 14 15 16 17 19 20 20 23 26
3 3 4 3 3 3 9 18 19 20 17 21 31 37 34 38 38 39 38 38 37 40 39 37 35 33 31 30 28 23 16 12 9 7 8 9 10 11 12 13 14 15 15 17 19 20 20 21 26
4 4 6 4 2 3 6 17 18 17 14 25 31 32 43 44 39 36 40 39 42 41 42 39 37 36 34 31 28 23 16 14 11 8 9 10 11 13 13 13 14 14 15 16 17 18 20 22 25
4 6 4 5 3 4 6 11 8 8 13 23 30 35 35 42 44 41 39 42 44 45 45 42 39 36 35 31 30 27 20 17 13 9 9 11 12 12 13 13 14 14 15 15 15 16 19 22 24
5 4 2 2 1 4 1 7 7 7 11 7 16 24 33 37 37 40 40 43 46 45 45 42 37 36 34 33 33 29 22 17 13 12 9 12 13 13 14 14 14 14 14 14 13 15 18 22 25
5 2 3 2 2 4 2 3 8 5 8 11 8 20 25 28 31 37 40 41 43 43 44 42 37 36 34 35 34 30 26 21 17 15 11 13 13 14 14 14 14 14 13 12 13 14 18 22 25
5 5 6 5 2 3 8 8 5 5 6 5 3 7 11 14 21 28 31 35 41 43 43 40 38 37 35 35 34 33 29 24 21 17 14 14 15 15 14 14 14 13 12 12 13 16 20 23 26
2 6 1 3 1 7 3 4 5 10 9 6 3 10 9 11 15 20 27 35 39 43 44 41 38 37 36 36 35 34 30 26 24 21 18 15 16 16 15 14 13 12 12 12 14 18 21 25 28
7 6 5 8 4 3 2 8 7 10 9 17 18 13 10 14 15 19 25 29 35 39 40 40 39 38 35 35 37 35 31 29 26 23 20 17 17 17 16 14 13 12 11 12 16 19 22 27 30
6 6 3 4 1 3 5 7 10 10 10 5 8 12 15 17 17 18 21 25 29 35 37 38 37 35 34 36 36 35 32 31 29 25 22 19 18 17 16 15 14 12 11 13 17 20 24 28 31
4 1 2 2 2 5 5 6 8 5 6 6 6 11 17 15 16 18 22 24 27 28 30 32 31 30 31 33 34 33 32 31 29 27 24 20 19 18 16 15 14 12 12 15 18 21 25 30 32
4 4 2 2 4 5 2 6 7 8 7 9 10 17 16 16 15 17 20 23 27 29 29 28 28 28 28 29 30 32 33 32 31 28 25 22 20 18 17 15 13 12 12 15 18 22 26 30 34
2 6 7 4 6 4 3 11 2 5 2 6 3 6 14 18 19 19 20 22 28 30 30 29 28 28 26 27 29 32 32 33 31 29 26 23 20 19 17 16 14 12 13 15 18 22 26 30 34
Wind_Direction
326 333 326 270 43 64 264 255 283 171 181 127 135 178 155 83 155 197 160 182 178 186 188 192 199 202 204 204 204 204 209 216 221 236 251 269 285 284 264 267 272 283 297 299 303 307 313 306 299
320 326 324 165 105 53 266 239 229 206 149 125 106 94 55 132 143 160 161 182 187 189 191 195 203 210 215 217 215 214 217 222 226 240 251 262 269 277 271 276 287 284 278 283 288 290 290 293 300
317 314 294 132 159 198 227 227 212 181 163 174 125 107 144 159 183 175 178 188 184 188 193 197 207 216 222 224 229 229 231 238 235 244 256 270 270 265 266 275 284 282 274 273 276 280 279 279 281
309 284 241 140 236 247 210 225 187 161 177 171 151 111 145 188 165 169 180 185 187 191 198 204 211 219 225 230 231 229 230 234 237 246 259 267 271 268 264 269 277 277 273 275 275 271 271 275 278
276 238 237 237 245 256 253 260 185 189 180 173 173 184 168 180 163 174 184 186 191 193 203 213 222 233 239 237 232 231 231 236 244 248 255 260 261 264 268 272 272 273 272 273 273 274 273 271 271
228 170 185 231 242 263 263 224 184 211 192 171 155 149 172 189 189 184 198 193 193 200 208 219 233 239 240 235 229 229 232 236 239 242 243 250 255 258 265 272 275 277 273 273 272 271 270 270 268
178 132 225 231 256 277 237 197 185 195 179 206 176 141 190 190 189 196 197 199 200 204 213 219 220 216 202 181 174 169 174 173 177 189 200 217 233 252 256 264 271 271 274 276 282 280 280 276 272
198 140 249 228 233 268 228 204 212 185 200 176 180 187 206 190 184 191 196 205 207 210 209 209 205 194 177 166 154 158 163 164 179 189 193 201 223 247 255 266 273 285 289 299 295 301 293 291 289
190 178 232 230 200 244 262 181 197 183 165 180 197 208 205 187 183 190 196 202 207 207 207 208 202 191 184 173 168 169 175 177 181 202 215 228 247 258 275 285 295 300 303 300 303 298 295 294 292
175 185 220 212 217 261 283 219 186 168 172 198 205 204 190 185 190 194 203 208 208 209 210 204 195 192 187 182 178 183 185 187 190 203 225 250 267 280 288 293 298 300 300 300 301 296 294 295 294
196 218 204 266 276 275 276 271 207 168 224 209 207 198 187 186 193 201 208 216 219 213 208 204 195 194 188 190 191 189 195 189 189 208 236 267 277 286 291 298 301 301 305 304 302 300 303 303 302
233 251 253 259 268 295 268 297 273 222 227 251 235 221 199 197 201 206 211 214 209 209 210 204 198 198 197 197 198 198 200 194 206 225 238 267 282 296 308 309 308 309 307 306 305 306 307 308 307
221 261 261 254 256 264 268 251 242 250 238 241 217 214 214 214 215 217 220 218 214 211 209 205 202 200 203 204 203 202 194 199 224 246 260 275 292 309 313 315 315 314 315 314 316 316 317 314 312
193 222 260 254 249 241 235 256 232 244 237 230 214 212 220 220 222 218 214 216 214 213 210 204 203 203 205 208 205 202 199 213 236 260 292 306 315 315 321 321 319 318 318 320 319 318 314 315 315
190 253 282 224 223 239 199 280 231 247 239 235 229 231 228 227 223 222 226 222 219 215 209 206 205 206 207 208 204 205 208 222 247 270 289 308 304 310 316 316 319 320 321 321 317 314 315 317 315
289 123 265 198 149 203 150 264 226 320 231 235 236 234 230 229 227 228 227 229 221 217 212 211 212 211 208 207 204 210 215 225 246 270 293 301 302 307 314 320 321 320 318 316 315 316 318 320 320
190 275 219 301 199 139 172 268 262 224 241 243 239 234 233 231 232 230 229 228 222 219 215 215 218 215 211 206 205 213 221 230 247 272 288 284 293 302 310 315 316 314 313 314 316 321 324 326 325
204 220 251 232 206 198 210 262 268 269 266 255 253 245 237 236 233 232 229 224 221 218 218 220 221 216 213 209 208 214 221 228 244 267 283 281 286 295 303 311 316 313 315 317 319 324 328 329 327
147 222 262 277 203 211 229 257 261 272 262 255 249 247 243 238 238 235 229 224 220 217 217 219 220 217 213 209 210 215 222 228 241 268 290 283 287 294 302 315 315 315 315 319 325 327 329 332 334
230 250 260 259 146 205 292 273 274 265 250 238 244 237 241 241 237 232 226 224 220 218 219 220 222 220 217 214 216 221 222 229 236 262 288 281 284 294 309 316 312 310 317 322 324 327 333 337 343
228 207 219 236 312 227 307 274 257 259 247 255 245 245 245 243 238 229 222 220 219 219 220 220 221 220 219 216 216 220 220 228 232 252 283 290 288 297 303 306 308 311 316 320 325 331 333 336 337
247 206 162 170 121 248 170 286 281 276 277 254 254 242 243 243 239 235 224 219 218 220 222 223 223 221 219 219 220 225 229 236 237 251 277 294 288 290 300 304 304 306 312 318 323 328 333 331 331
227 118 141 109 183 355 232 280 272 272 277 263 271 256 246 243 240 234 226 223 221 219 222 224 225 222 222 222 223 227 229 233 238 250 273 292 286 288 294 298 299 303 311 314 320 326 325 326 325
132 70 43 47 68 296 199 190 232 228 238 286 295 311 246 241 236 232 229 223 221 220 220 221 222 223 224 224 225 227 230 233 239 249 267 288 286 284 289 293 295 301 305 308 314 320 324 323 321
97 101 327 341 347 231 151 183 262 267 248 232 255 279 254 230 222 216 217 218 219 218 217 218 220 223 224 226 227 229 231 235 239 246 260 279 282 280 284 287 291 294 295 300 309 317 321 320 320
184 174 170 206 205 252 37 234 253 243 283 260 267 252 219 204 205 206 210 211 214 216 217 216 219 222 225 227 228 229 231 235 239 244 256 272 278 276 280 283 285 285 288 297 307 316 320 320 321
193 206 198 103 67 35 224 280 294 261 255 258 231 198 208 205 203 203 208 209 210 211 214 216 219 224 227 228 228 229 232 235 239 245 253 266 273 273 276 279 280 280 283 295 307 317 321 322 324
178 224 111 359 186 246 272 266 233 273 246 224 233 226 222 221 215 208 209 207 204 206 208 213 218 222 225 226 228 231 235 239 240 244 252 262 268 268 271 272 274 273 282 297 309 317 323 325 326
156 204 201 138 168 183 273 258 220 236 209 212 232 233 226 221 222 216 210 206 201 200 202 206 213 220 226 230 232 235 238 238 240 244 250 259 262 263 266 268 268 267 282 299 311 320 326 326 325
243 189 165 142 224 230 179 256 275 264 178 207 257 256 244 235 231 224 214 211 209 207 208 211 216 221 229 235 237 239 239 239 241 243 248 255 257 258 261 262 261 266 282 299 313 321 326 327 326